Flag for U.S.A. Weather past 2 weeks in Oberlin, Ohio, U.S.A.

Now
53 °F

Fog.


Feels Like: 53 °F
Forecast: 48 / 68 °F
Wind: No wind

Location: Lorain County Regional Airport

Current Time: Sep 18, 2014 at 2:53:09 AM

Latest Report: Sep 18, 2014 at 1:53 AM


Visibility: 4 mi

Pressure: 30.02 "Hg

Humidity: 86%

Dew point: 49 °F

Location of OberlinLocation

Historic Weather in Oberlin — Graph

°F

Oberlin temperature yesterday

Maximum temperature yesterday: 70 °F (at 2:53 PM)
Minimum temperature yesterday: 48 °F (at 4:53 AM)
Average temperature yesterday: 58 °F

Past Weeks' High & Low Weather Summary

 TemperatureHumidityPressure
High92 °F (Sep 5, 1:53 PM)93% (Sep 3, 5:53 AM)30.36 "Hg (Sep 3, 5:53 AM)
Low45 °F (Sep 14, 6:53 AM)42% (Sep 3, 2:53 PM)29.65 "Hg (Sep 10, 7:53 PM)
Average66 °F72%30.09 "Hg
* Reported Sep 3 12:53 AM — Sep 18 12:53 AM, Oberlin, Weather by CustomWeather, © 2014

Note: Actual official high and low records may vary slightly from our data, if they occured in-between our weather recording intervals... More about our weather records

Advertising

Oberlin weather history for previous 24 hours

 ConditionsComfort  
Time TempWeatherWind HumidityBarometerVisibility
12:53 AM
Sep 18
53 °FFog.3 mph86%30.01 "Hg6 mi
11:53 PM
Sep 17
56 °FPassing clouds.No wind84%30.01 "Hg7 mi
10:53 PM54 °FPassing clouds.3 mph86%30.01 "Hg8 mi
9:53 PM54 °FPassing clouds.No wind83%30.01 "Hg10 mi
8:53 PM57 °FClear.No wind81%30.01 "Hg10 mi
7:53 PM60 °FSunny.5 mph69%29.99 "Hg10 mi
6:53 PM64 °FSunny.7 mph63%30.00 "Hg10 mi
5:53 PM68 °FSunny.9 mph53%29.99 "Hg10 mi
4:53 PM69 °FPartly sunny.5 mph51%29.99 "Hg10 mi
3:53 PM69 °FScattered clouds.5 mph47%30.00 "Hg10 mi
2:53 PM70 °FPartly sunny.8 mph47%30.01 "Hg10 mi
1:53 PM69 °FScattered clouds.8 mph47%30.01 "Hg10 mi
12:53 PM67 °FScattered clouds.8 mph51%30.03 "Hg10 mi
11:53 AM64 °FPassing clouds.3 mph54%30.05 "Hg10 mi
10:53 AM63 °FPartly sunny.7 mph68%30.06 "Hg10 mi
9:53 AM59 °FSunny.6 mph75%30.07 "Hg10 mi
8:53 AM53 °FSunny.5 mph83%30.08 "Hg8 mi
7:53 AM49 °FClear.5 mph84%30.09 "Hg6 mi
6:53 AM48 °FClear.5 mph83%30.08 "Hg7 mi
5:53 AM48 °FClear.5 mph83%30.07 "Hg7 mi
4:53 AM48 °FClear.3 mph86%30.07 "Hg9 mi
3:53 AM49 °FClear.No wind84%30.07 "Hg9 mi
2:53 AM49 °FClear.5 mph84%30.08 "Hg9 mi
Weather by CustomWeather, © 2014

See weather overviewHow to use our weather pages